This is the latest recevied weather packets stored in our database for station/object K5NWZ. If no packets are shown the sender has not sent any weather packets the latest 10 day(s).
| Time | Temp. | Humidity | Pressure | Rain* | Wind** | Luminosity | Snow |
|---|---|---|---|---|---|---|---|
| 1787422041 | 28.33° C | 52% | 1033.3 hPa | 0 mm | - | 696 W/m² | - |
| 1787421738 | 27.78° C | 54% | 1033.4 hPa | 0 mm | - | 690 W/m² | - |
| 1787421438 | 27.78° C | 54% | 1033.8 hPa | 0 mm | - | 672 W/m² | - |
| 1787421133 | 27.78° C | 54% | 1033.9 hPa | 0 mm | - | 689 W/m² | - |
| 1787420828 | 27.22° C | 54% | 1033.8 hPa | 0 mm | - | 679 W/m² | - |
| 1787420524 | 27.22° C | 56% | 1033.6 hPa | 0 mm | - | 671 W/m² | - |
| 1787420220 | 27.22° C | 58% | 1033.8 hPa | 0 mm | - | 661 W/m² | - |
| 1787419916 | 27.22° C | 57% | 1034 hPa | 0 mm | - | 660 W/m² | - |
| 1787419612 | 27.22° C | 57% | 1033.8 hPa | 0 mm | - | 652 W/m² | - |
| 1787419312 | 26.67° C | 56% | 1033.7 hPa | 0 mm | - | 646 W/m² | - |
| 1787419008 | 26.67° C | 59% | 1033.8 hPa | 0 mm | - | 621 W/m² | - |
| 1787418703 | 26.11° C | 59% | 1033.9 hPa | 0 mm | - | 627 W/m² | - |
| 1787418400 | 26.11° C | 61% | 1033.9 hPa | 0 mm | - | 619 W/m² | - |
| 1787418096 | 26.11° C | 60% | 1033.8 hPa | 0 mm | - | 611 W/m² | - |
| 1787417791 | 26.11° C | 61% | 1034 hPa | 0 mm | - | 601 W/m² | - |
| 1787417486 | 25.56° C | 62% | 1033.9 hPa | 0 mm | - | 582 W/m² | - |
| 1787417181 | 25.56° C | 63% | 1033.8 hPa | 0 mm | - | 581 W/m² | - |
| 1787416877 | 25.56° C | 62% | 1034 hPa | 0 mm | - | 560 W/m² | - |
| 1787416573 | 25.56° C | 62% | 1033.9 hPa | 0 mm | - | 560 W/m² | - |
| 1787416268 | 25° C | 62% | 1033.9 hPa | 0 mm | - | 553 W/m² | - |
| 1787415963 | 25° C | 62% | 1033.8 hPa | 0 mm | - | 539 W/m² | - |
| 1787415662 | 25° C | 61% | 1034 hPa | 0 mm | - | 531 W/m² | - |
| 1787415357 | 25° C | 60% | 1033.8 hPa | 0 mm | - | 519 W/m² | - |
| 1787415053 | 24.44° C | 62% | 1033.9 hPa | 0 mm | - | 507 W/m² | - |
| 1787414749 | 24.44° C | 62% | 1033.8 hPa | 0 mm | - | 494 W/m² | - |
* Rain latest hour (hover to see other rain measurements)
** Current wind speed in m/s (hover to see current wind gust speed)